{"data":{"norad_id":67893,"epoch":"2026-05-25T02:38:51.938304Z","epoch_age_seconds":61409,"freshness":"FRESH","line1":"1 67893U 26035Q   26145.11032336  .00034405  00000+0  10618-2 0  9999","line2":"2 67893  97.2837  78.6967 0001804  83.2131 276.9317 15.33486028 15703","mean_motion":15.33486028,"eccentricity":0.0001804,"inclination_deg":97.2837,"raan_deg":78.6967,"arg_perigee_deg":83.2131,"mean_anomaly_deg":276.9317,"bstar":0.0010618,"rev_number":1570,"period_min":93.903692221968,"perigee_km":464.18652885497,"apogee_km":466.65568461988,"semimajor_km":6843.5581067374,"source":"CELESTRAK","updated_at":"2026-05-25T13:38:21.734709Z"}}